Startpagina
METAR-TAF:

METAR-TAF

Vliegvelden :

Militair vliegvled

Meppen, Duitsland

breedte: 52-43-24N, lengte: 007-19-35E, hoogte: 21 m

Actueel weer

Dit bericht is 1 uur en het 13 minuten geleden gemaakt, om 06:20 UTC
Wind 3 kt uit het zuiden
Temperatuur 8°C
Vochtigheid 87%
Druk 1022 hPa
Zicht 10 km of meer
Gebroken wolken op 8700 ft
Verspreide wolken op 29000 ft

METAR: ETWM 180620Z 18003KT 9999 BKN087 SCT290 08/06 Q1022 BLU

Tijdstip: 09:33 (07:33 UTC)


TAF: ontbreekt

Waarnemingen en weersverwachtingen van meer dan 4000 vliegvelden (METAR en TAF).

De beschikbare stations zijn de gele en rode punten op de kaart.

Ga met uw muis naar het station om de naam te zien.

Klik dan om waarnemingen en weersverwachtingen te zien.

kaart wijzigen: klik op de groene knoppen met een zwart kruis om in te zoomen, op de groene knop met een streepje om uit te zoomen of op de groene pijlen voor aangrenzende kaarten.


METAR-TAF: